Terminal Aerodrome Forecast
Issued by NWS

Home | Current Version | Previous Version | Text Only | Print | Product List | Glossary On
Versions: 1 2 3 4 5 6 7 8 9 10 11 12 13 14 15 16 17 18 19 20 21 22 23 24 25 26 27
081
FTPQ31 PGUM 111727
TAFGUM
TAF

TAF
PGSN 111727Z 1118/1218 04018G28KT P6SM VCSH FEW020 SCT040 BKN080
      TEMPO 1118/1122 -SHRA SCT016 BKN030=

USA.gov is the U.S. government's official web portal to all federal, state and local government web resources and services.